GW0055 Weather Reports


Display with metric or nautical units.
time (UTC)temp
F
wind
direction
speed
MPH
gust
MPH
rain 1hr
in
rain 24hr
in
rain mn
in
humidity
%
barometer
mb
20260504120105 54 197 8.0 11.0 0.00 0.00 0.00 72 1005.1
20260504110534 52 188 6.0 8.0 0.00 0.00 0.00 73 1005.1
20260504100533 54 184 4.0 9.0 0.00 0.00 0.00 67 1005.7
20260504081548 56 213 2.0 8.0 0.00 0.00 0.00 64 1006.3
20260504081035 56 196 3.0 8.0 0.00 0.00 0.00 64 1006.4
20260504080534 56 213 4.0 8.0 0.00 0.00 0.00 64 1006.4
20260504050535 59 226 5.0 8.0 0.00 0.00 0.00 62 1007.9
20260504045534 59 214 4.0 8.0 0.00 0.00 0.00 62 1007.9
20260504045034 59 228 4.0 9.0 0.00 0.00 0.00 62 1008.0
20260504044544 59 222 5.0 9.0 0.00 0.00 0.00 63 1008.1
20260504044034 58 211 3.0 8.0 0.00 0.00 0.00 63 1008.0
20260504043534 58 220 4.0 8.0 0.00 0.00 0.00 63 1008.0
20260504043104 58 196 5.0 8.0 0.00 0.00 0.00 63 1008.0
20260504042534 58 206 5.0 8.0 0.00 0.00 0.00 63 1008.1
20260504042034 58 197 5.0 7.0 0.00 0.00 0.00 62 1008.2
20260504041545 58 201 5.0 7.0 0.00 0.00 0.00 61 1008.2
20260504041034 59 199 4.0 7.0 0.00 0.00 0.00 61 1008.2
20260504040539 59 200 4.0 7.0 0.00 0.00 0.00 60 1008.2
20260504040042 60 199 5.0 7.0 0.00 0.00 0.00 59 1008.3
20260504035535 60 197 4.0 8.0 0.00 0.00 0.00 58 1008.3
20260504035035 61 211 4.0 9.0 0.00 0.00 0.00 57 1008.4
20260504034546 61 198 6.0 9.0 0.00 0.00 0.00 56 1008.4
20260504034034 61 212 4.0 10.0 0.00 0.00 0.00 56 1008.5
20260504033534 61 205 5.0 10.0 0.00 0.00 0.00 56 1008.5
20260504033045 61 214 6.0 10.0 0.00 0.00 0.00 55 1008.5
20260504032534 61 217 6.0 10.0 0.00 0.00 0.00 55 1008.6
20260504032034 62 207 6.0 10.0 0.00 0.00 0.00 55 1008.5
20260504031551 62 205 6.0 10.0 0.00 0.00 0.00 55 1008.5
20260504031034 62 225 5.0 9.0 0.00 0.00 0.00 55 1008.6
20260504030534 62 227 5.0 9.0 0.00 0.00 0.00 55 1008.6
20260504030100 62 216 5.0 9.0 0.00 0.00 0.00 54 1008.6
20260504025534 62 206 6.0 9.0 0.00 0.00 0.00 54 1008.6
20260504025034 62 214 5.0 10.0 0.00 0.00 0.00 54 1008.7
20260504024543 62 204 6.0 10.0 0.00 0.00 0.00 53 1008.6
20260504024034 63 207 7.0 12.0 0.00 0.00 0.00 53 1008.6
20260504023534 63 213 7.0 12.0 0.00 0.00 0.00 53 1008.6
20260504023049 63 220 6.0 12.0 0.00 0.00 0.00 52 1008.6
20260504022538 63 234 6.0 12.0 0.00 0.00 0.00 52 1008.6
20260504022035 64 213 6.0 12.0 0.00 0.00 0.00 52 1008.6
20260504021550 64 209 7.0 12.0 0.00 0.00 0.00 51 1008.5
20260504021036 64 218 6.0 14.0 0.00 0.00 0.00 51 1008.4
20260504020538 64 195 6.0 14.0 0.00 0.00 0.00 50 1008.3
20260504020053 64 225 6.0 11.0 0.00 0.00 0.00 50 1008.3
20260504015534 64 228 6.0 11.0 0.00 0.00 0.00 50 1008.3
20260504015034 64 204 7.0 11.0 0.00 0.00 0.00 50 1008.3
20260504014549 64 219 7.0 12.0 0.00 0.00 0.00 50 1008.2
20260504014034 64 233 7.0 12.0 0.00 0.00 0.00 50 1008.2
20260504013535 65 233 6.0 12.0 0.00 0.00 0.00 49 1008.2
20260504013051 65 216 7.0 12.0 0.00 0.00 0.00 49 1008.1
20260504012534 65 204 7.0 12.0 0.00 0.00 0.00 48 1008.1
20260504012035 65 225 7.0 12.0 0.00 0.00 0.00 48 1008.1
20260504011549 66 204 7.0 12.0 0.00 0.00 0.00 48 1008.1
20260504011037 66 216 7.0 12.0 0.00 0.00 0.00 48 1008.0
20260504010534 66 205 5.0 11.0 0.00 0.00 0.00 47 1008.0
20260504010055 67 211 6.0 11.0 0.00 0.00 0.00 47 1008.1
20260504005534 67 216 6.0 11.0 0.00 0.00 0.00 46 1008.0
20260504005034 67 223 6.0 11.0 0.00 0.00 0.00 46 1007.9
20260504004547 68 209 6.0 11.0 0.00 0.00 0.00 46 1008.0
20260504004035 68 226 6.0 11.0 0.00 0.00 0.00 45 1007.9
20260504003534 68 232 6.0 13.0 0.00 0.00 0.00 45 1008.0
20260504003044 68 216 6.0 13.0 0.00 0.00 0.00 44 1007.9
20260504002534 69 220 6.0 13.0 0.00 0.00 0.00 43 1008.0
20260504002034 69 220 6.0 13.0 0.00 0.00 0.00 43 1008.0
20260504001541 69 234 5.0 12.0 0.00 0.00 0.00 42 1008.0
20260504001034 69 230 5.0 14.0 0.00 0.00 0.00 42 1008.0
20260504000534 70 223 5.0 14.0 0.00 0.00 0.00 42 1008.0
20260504000054 70 207 5.0 13.0 0.00 0.00 0.00 42 1008.0
20260503235533 70 248 6.0 13.0 0.00 0.00 0.00 41 1008.0
20260503235035 70 242 6.0 13.0 0.00 0.00 0.00 42 1008.2
20260503234550 70 222 7.0 14.0 0.00 0.00 0.00 41 1008.1
20260503234038 70 224 6.0 14.0 0.00 0.00 0.00 41 1008.1
20260503233537 70 230 7.0 14.0 0.00 0.00 0.00 41 1008.1
20260503233044 71 243 8.0 14.0 0.00 0.00 0.00 41 1008.1
20260503232537 71 234 8.0 18.0 0.00 0.00 0.00 41 1008.0
20260503232037 71 230 8.0 18.0 0.00 0.00 0.00 41 1008.0
20260503231545 71 235 9.0 18.0 0.00 0.00 0.00 41 1008.1
20260503231040 71 226 8.0 18.0 0.00 0.00 0.00 42 1008.1
20260503230538 71 230 9.0 17.0 0.00 0.00 0.00 42 1008.3
20260503230109 70 227 5.0 18.0 0.00 0.00 0.00 44 1008.2
20260503225537 70 248 8.0 18.0 0.00 0.00 0.00 43 1008.2
20260503225037 70 249 8.0 17.0 0.00 0.00 0.00 43 1008.3
20260503224548 70 225 7.0 17.0 0.00 0.00 0.00 44 1008.2
20260503224038 69 221 8.0 17.0 0.00 0.00 0.00 45 1008.2
20260503223536 69 214 9.0 15.0 0.00 0.00 0.00 45 1008.3
20260503223109 69 225 7.0 14.0 0.00 0.00 0.00 45 1008.3
20260503222539 69 230 4.0 12.0 0.00 0.00 0.00 46 1008.3
20260503222038 69 224 7.0 14.0 0.00 0.00 0.00 45 1008.5
20260503221552 69 236 7.0 16.0 0.00 0.00 0.00 45 1008.4
20260503221038 69 246 9.0 17.0 0.00 0.00 0.00 46 1008.3
20260503220538 68 220 8.0 17.0 0.00 0.00 0.00 45 1008.4
20260503220051 68 228 8.0 20.0 0.00 0.00 0.00 45 1008.4
20260503215538 68 234 7.0 20.0 0.00 0.00 0.00 46 1008.5
20260503215037 68 240 9.0 16.0 0.00 0.00 0.00 46 1008.4
20260503214555 68 239 9.0 16.0 0.00 0.00 0.00 46 1008.6
20260503214037 68 255 9.0 16.0 0.00 0.00 0.00 45 1008.5
20260503213537 68 234 7.0 17.0 0.00 0.00 0.00 47 1008.6
20260503213046 68 226 9.0 17.0 0.00 0.00 0.00 47 1008.6
20260503212537 68 237 9.0 19.0 0.00 0.00 0.00 47 1008.8
20260503212036 68 232 10.0 23.0 0.00 0.00 0.00 47 1009.0
20260503211551 68 234 10.0 23.0 0.00 0.00 0.00 47 1009.0
20260503211037 68 248 13.0 22.0 0.00 0.00 0.00 45 1009.0
20260503210535 68 225 10.0 20.0 0.00 0.00 0.00 47 1009.0
20260503210046 68 244 10.0 19.0 0.00 0.00 0.00 46 1009.0
20260503205537 68 247 11.0 20.0 0.00 0.00 0.00 46 1009.0
20260503205038 68 221 11.0 20.0 0.00 0.00 0.00 46 1009.1
20260503204547 68 231 11.0 19.0 0.00 0.00 0.00 46 1009.1
20260503204038 67 249 10.0 19.0 0.00 0.00 0.00 47 1009.2
20260503203543 67 258 10.0 19.0 0.00 0.00 0.00 47 1009.2
20260503203049 67 232 11.0 20.0 0.00 0.00 0.00 46 1009.3
20260503202538 68 242 11.0 20.0 0.00 0.00 0.00 46 1009.2
20260503202040 68 237 12.0 19.0 0.00 0.00 0.00 46 1009.3
20260503201551 68 223 9.0 23.0 0.00 0.00 0.00 48 1009.4
20260503201041 67 231 10.0 23.0 0.00 0.00 0.00 47 1009.5
20260503200537 67 226 9.0 23.0 0.00 0.00 0.00 48 1009.6
20260503200047 67 253 10.0 21.0 0.00 0.00 0.00 48 1009.6
20260503195538 67 242 11.0 21.0 0.00 0.00 0.00 48 1009.4
20260503195038 67 224 11.0 24.0 0.00 0.00 0.00 48 1009.1
20260503194601 66 222 13.0 25.0 0.00 0.00 0.00 47 1009.2
20260503194039 66 215 14.0 27.0 0.00 0.00 0.00 48 1009.3
20260503193536 66 228 15.0 27.0 0.00 0.00 0.00 48 1009.5
20260503193047 66 216 14.0 28.0 0.00 0.00 0.00 47 1009.7
20260503192537 66 208 15.0 28.0 0.00 0.00 0.00 47 1009.8
20260503192039 66 236 12.0 22.0 0.00 0.00 0.00 47 1009.8
20260503191552 66 230 13.0 30.0 0.00 0.00 0.00 46 1009.7
20260503191039 66 248 16.0 30.0 0.00 0.00 0.00 46 1009.5
20260503190541 66 215 14.0 25.0 0.00 0.00 0.00 46 1009.4
20260503190047 67 234 13.0 25.0 0.00 0.00 0.00 45 1009.6
20260503185540 67 268 13.0 25.0 0.00 0.00 0.00 46 1009.9
20260503185040 66 230 13.0 26.0 0.00 0.00 0.00 45 1009.8
20260503184544 66 232 15.0 26.0 0.00 0.00 0.00 46 1009.8
20260503184037 66 220 11.0 24.0 0.00 0.00 0.00 45 1009.9
20260503183537 66 240 12.0 26.0 0.00 0.00 0.00 46 1009.9
20260503183053 66 224 11.0 27.0 0.00 0.00 0.00 46 1010.2
20260503182537 66 214 16.0 31.0 0.00 0.00 0.00 46 1010.3
20260503182037 65 224 14.0 31.0 0.00 0.00 0.00 46 1010.2
20260503181557 65 213 10.0 30.0 0.00 0.00 0.00 48 1010.2
20260503181038 65 220 14.0 30.0 0.00 0.00 0.00 47 1010.2
20260503180540 64 230 16.0 28.0 0.00 0.00 0.00 47 1010.3
20260503180053 64 227 16.0 27.0 0.00 0.00 0.00 47 1010.2
20260503175536 64 201 14.0 27.0 0.00 0.00 0.00 46 1010.4
20260503175038 64 226 16.0 30.0 0.00 0.00 0.00 46 1010.6
20260503174556 65 209 15.0 27.0 0.00 0.00 0.00 46 1010.6
20260503174038 64 195 13.0 27.0 0.00 0.00 0.00 46 1010.9
20260503173539 64 240 14.0 29.0 0.00 0.00 0.00 46 1010.7
20260503173047 64 220 17.0 29.0 0.00 0.00 0.00 47 1010.9
20260503172536 64 224 14.0 24.0 0.00 0.00 0.00 47 1011.1
20260503172034 64 227 14.0 26.0 0.00 0.00 0.00 47 1011.1
20260503171544 64 221 16.0 26.0 0.00 0.00 0.00 46 1011.0
20260503171034 64 213 15.0 27.0 0.00 0.00 0.00 46 1011.0
20260503170534 64 245 13.0 27.0 0.00 0.00 0.00 46 1011.2
20260503150534 54 175 10.0 18.0 0.00 0.00 0.00 61 1012.4
20260503131034 50 188 13.0 18.0 0.00 0.00 0.00 62 1014.7
20260503130535 50 184 11.0 18.0 0.00 0.00 0.00 63 1014.9